Vertical_Velocity
1 3 4 -1 4 5 -11 4 2 -3 -5 -4 -6 1 -1 6 0 9 -2 6 -5 5 -0 -2 -10 -19 10 22 7 -7 5 12 -1 -3 3 6 2 2 5 7 1 1 4 -14
3 -2 -4 3 4 -0 -3 3 -1 8 4 -4 -0 2 -2 2 -1 6 3 4 7 14 4 -6 3 15 17 7 -4 -2 17 7 -5 2 13 -7 -2 4 1 -0 4 -5 9 -6
0 -0 -2 -2 6 10 2 -4 -6 -4 -1 -2 -5 -11 3 -3 14 4 -0 -6 4 -2 7 18 -9 -5 8 6 25 16 13 0 -4 -5 7 9 18 7 3 2 -2 1 2 -3
-11 2 4 -2 -0 1 2 -2 -3 -3 -3 6 -1 2 -7 -6 -13 9 1 4 -3 -5 -4 8 8 -1 0 7 1 34 10 5 6 1 1 -3 3 6 7 -3 -0 -3 -0 -2
-2 1 18 -6 -4 1 -5 -11 -10 -3 -7 -4 -4 -5 -8 -3 5 -4 4 -2 -4 2 -4 -2 5 1 2 5 2 2 11 21 16 23 -5 15 1 15 4 7 21 4 -4 -0
-2 -3 -5 1 -2 -7 -1 9 -8 -1 -5 -6 -4 -6 -6 -2 -1 -3 -3 -1 -4 -2 -2 0 0 -1 -8 1 -2 -4 2 4 4 5 9 26 11 26 7 2 4 9 -3 8
-1 -4 -2 -3 0 -3 -1 -3 -2 -5 -3 -1 -1 -10 -6 2 -2 -4 -4 -3 -1 -2 -1 -1 1 2 5 1 -2 -2 1 7 6 4 3 8 1 12 9 12 4 13 1 7
-3 3 0 -2 0 -1 -6 0 -2 0 -3 -12 -9 -9 -12 -10 -2 -4 -4 -6 -0 -2 -3 -0 -0 0 2 3 4 1 1 -4 3 -10 -2 -0 3 -5 -5 0 -1 6 1 -0
-2 -4 -13 -5 -14 -2 -1 -1 3 0 3 -4 -7 -3 -1 -0 -7 -7 -3 -0 -2 -1 -2 -2 -1 -0 1 1 2 5 11 9 -11 4 4 -0 1 1 0 -3 -2 -0 -1 -1
-1 -3 0 -8 -9 5 5 -1 4 0 2 -3 -1 -2 -8 -5 -3 0 1 -3 -3 -3 -3 -3 -2 -1 -1 -1 -1 -3 -4 -5 -1 1 2 1 0 3 3 -0 -5 -2 -2 -2
-0 -11 1 -5 -3 -4 -1 6 -2 -1 -6 -1 -4 -6 -2 -3 -3 -3 0 11 -0 2 0 -4 0 -4 -1 -1 -1 1 3 0 1 -1 -2 -4 -3 0 6 -1 -3 -5 -4 -8
-4 -2 -6 -1 -4 -7 -3 -3 -3 -5 -5 -7 -5 -6 -5 -3 -3 -1 -4 -4 1 -1 -6 -7 -6 1 -4 1 -2 1 -3 -2 -1 1 -1 2 4 7 3 -4 -2 -0 -0 2
-1 -2 -4 0 -4 -1 1 0 -5 -6 -1 0 -6 -2 -4 -2 1 0 1 3 1 -5 -7 -3 -2 1 -2 -2 -5 -1 -3 -1 -2 2 -0 -0 -0 -2 -2 -2 -2 -1 -1 -1
-5 -0 -1 -5 -2 1 -1 -3 -5 -3 -1 3 0 -1 3 -1 -2 -0 -1 -2 -2 -4 -5 -2 -0 2 -1 -1 -4 1 -1 0 -2 -2 -1 -1 -1 -1 -2 -1 -1 -2 0 -0
1 -1 -5 -3 -0 -2 -3 -4 -4 -1 -3 -3 -3 -3 1 2 0 -2 -4 -3 -4 -3 -1 -4 0 -1 -1 -0 1 2 1 -1 -0 0 -0 -1 -1 -1 -1 -1 -2 -1 -2 -4
-0 -5 -3 -3 -0 -0 1 2 -1 -6 -6 -4 -3 -1 -4 -5 -5 -5 -7 -5 -2 -2 -0 1 0 -1 3 -0 -0 -2 -1 -1 1 1 1 1 0 -0 -1 -2 -1 -1 -1 2
-2 -3 -1 1 0 -1 -4 -3 -8 -5 -4 -2 -4 -4 -4 -2 -2 -3 -2 -0 -1 -1 -2 -2 -4 -3 -4 -1 -1 0 1 0 -0 -1 -2 -3 -1 -0 1 -1 -1 -3 -2 -1
-4 -3 -2 -2 -3 -4 -6 -5 -4 -0 0 -2 -2 1 1 -1 -1 -1 -1 -2 -2 -2 -2 -0 0 2 1 0 -1 -1 -3 -5 -2 -0 -1 -1 -1 -0 0 1 2 -2 -1 -1
-4 -1 -1 -1 1 3 -1 -0 -0 -6 -4 -1 -1 4 3 2 -0 -0 -0 -1 -1 0 -1 -0 -0 -1 -3 -3 2 -2 -1 2 2 -3 1 2 0 1 -1 -1 -2 -1 -3 -3
-2 -0 -2 -2 -1 -2 -0 4 5 10 5 2 -1 -1 -1 -2 1 2 2 1 -1 -1 -1 2 1 2 2 1 -1 3 1 -2 1 2 -0 -1 -3 -0 -2 -1 -0 2 1 1
0 -1 -3 -4 -4 -2 4 -4 7 2 1 3 -3 -1 -0 1 1 -0 1 2 2 2 0 1 -0 0 -1 -0 -1 -2 1 1 -0 1 -1 -1 0 0 -0 -3 -3 -1 -2 1
1 -1 -7 -0 6 -2 -7 -4 -7 -4 -7 -2 2 2 -1 0 -1 1 2 2 -0 -3 5 4 1 -1 -0 -1 1 1 0 1 0 0 1 -0 -1 1 3 1 2 -1 -2 -0
-7 -6 5 1 -1 6 -7 -6 -0 1 1 -1 -2 -3 -3 -1 1 2 0 -1 -0 4 1 1 1 1 -1 2 5 3 -1 -1 -0 -0 -1 0 2 -3 -1 6 1 5 1 -1
-10 7 1 -1 -7 -8 -5 -2 -0 -3 -2 -1 -3 -3 4 2 1 0 0 -0 3 3 0 3 4 4 1 0 -1 1 3 1 0 1 1 -0 2 3 -3 -1 -0 4 2 1
7 -1 -6 -8 -2 -1 -3 -2 -0 1 -0 0 2 5 5 2 1 -4 -2 -3 3 -1 -1 1 -1 -3 -3 1 3 3 2 3 2 1 2 1 2 3 3 -3 -1 -1 1 -0
-3 -6 -4 -2 -2 -3 -1 1 1 -0 0 2 1 2 -1 -2 -1 -2 -3 0 -5 -3 1 -0 2 3 2 0 1 0 -0 -1 0 -1 1 1 2 3 7 5 1 2 -2 1
-7 -6 -1 -2 0 -1 -1 0 -1 -2 1 -3 -1 0 -3 -1 -4 -0 -2 -3 -2 1 4 2 -0 -1 -0 1 -1 -0 2 1 1 1 -1 -1 0 1 -0 4 8 4 0 1
Height
5688 5678 5668 5658 5648 5637 5623 5612 5599 5584 5570 5562 5548 5540 5528 5519 5510 5504 5494 5489 5483 5478 5474 5471 5472 5472 5471 5474 5472 5471 5473 5471 5471 5474 5475 5476 5475 5478 5479 5478 5480 5481 5481 5482
5675 5666 5654 5643 5631 5619 5608 5596 5582 5568 5554 5543 5535 5526 5518 5505 5495 5487 5480 5473 5467 5463 5459 5456 5460 5453 5457 5458 5458 5458 5461 5460 5459 5458 5463 5464 5463 5467 5467 5469 5470 5470 5471 5472
5662 5650 5639 5627 5615 5602 5588 5576 5564 5554 5542 5530 5519 5512 5505 5496 5483 5472 5463 5456 5449 5443 5444 5443 5440 5444 5446 5446 5444 5445 5446 5446 5448 5451 5450 5453 5454 5456 5457 5459 5460 5461 5461 5462
5650 5638 5625 5613 5600 5587 5575 5563 5553 5543 5534 5523 5512 5500 5490 5481 5471 5460 5451 5442 5433 5426 5422 5424 5422 5426 5433 5432 5433 5433 5434 5432 5435 5438 5440 5442 5444 5446 5446 5447 5449 5449 5452 5452
5637 5626 5609 5594 5588 5578 5567 5556 5548 5534 5524 5514 5502 5490 5479 5469 5458 5450 5441 5431 5423 5414 5406 5403 5403 5408 5415 5417 5420 5421 5421 5420 5423 5424 5427 5428 5431 5433 5433 5435 5436 5437 5440 5441
5624 5611 5600 5589 5580 5572 5563 5550 5540 5530 5518 5505 5495 5483 5471 5459 5449 5440 5431 5424 5415 5406 5399 5393 5391 5392 5397 5402 5407 5411 5410 5410 5410 5412 5415 5416 5418 5418 5420 5423 5425 5426 5428 5429
5611 5600 5592 5585 5576 5566 5555 5545 5535 5524 5511 5498 5486 5474 5463 5453 5442 5433 5425 5417 5410 5402 5394 5389 5386 5386 5387 5388 5394 5398 5399 5399 5400 5402 5406 5407 5407 5408 5410 5411 5412 5411 5414 5416
5603 5596 5588 5580 5571 5560 5550 5540 5529 5517 5504 5491 5479 5467 5455 5445 5439 5431 5423 5414 5407 5399 5392 5388 5384 5382 5382 5382 5383 5386 5387 5389 5389 5393 5396 5398 5398 5400 5402 5402 5402 5401 5401 5402
5598 5590 5583 5574 5567 5555 5545 5534 5523 5512 5501 5489 5476 5465 5455 5445 5435 5427 5420 5412 5405 5399 5392 5387 5384 5381 5380 5380 5380 5379 5378 5379 5382 5385 5386 5387 5387 5389 5390 5390 5391 5391 5391 5390
5595 5588 5578 5569 5561 5552 5541 5527 5517 5507 5496 5485 5474 5462 5450 5442 5434 5427 5419 5413 5406 5400 5394 5389 5385 5382 5379 5377 5375 5373 5373 5373 5375 5375 5378 5379 5380 5380 5381 5384 5386 5381 5381 5380
5594 5584 5576 5566 5556 5547 5535 5524 5513 5503 5490 5481 5470 5459 5450 5441 5434 5427 5421 5416 5408 5403 5398 5393 5389 5384 5382 5379 5376 5374 5373 5372 5371 5372 5373 5376 5375 5375 5378 5376 5376 5376 5374 5374
5590 5580 5572 5561 5552 5541 5531 5521 5510 5498 5488 5477 5468 5459 5450 5441 5434 5428 5422 5416 5411 5405 5399 5396 5392 5389 5385 5383 5380 5378 5376 5375 5374 5374 5372 5372 5372 5372 5372 5372 5372 5371 5369 5367
5587 5578 5567 5558 5547 5537 5529 5518 5506 5495 5485 5476 5468 5459 5450 5442 5435 5429 5423 5417 5412 5406 5402 5399 5396 5394 5390 5387 5383 5381 5379 5378 5376 5376 5375 5374 5373 5372 5371 5370 5369 5367 5366 5364
5584 5573 5564 5553 5543 5535 5526 5515 5504 5495 5485 5478 5470 5460 5453 5445 5437 5430 5423 5418 5413 5408 5404 5402 5399 5397 5393 5390 5387 5385 5383 5381 5379 5377 5376 5374 5373 5371 5370 5368 5366 5364 5362 5359
5579 5570 5559 5549 5541 5532 5523 5512 5502 5493 5486 5476 5467 5460 5453 5445 5437 5431 5424 5419 5413 5409 5406 5402 5400 5396 5394 5391 5389 5386 5384 5382 5380 5378 5376 5374 5372 5370 5367 5365 5363 5360 5357 5353
5576 5565 5556 5547 5539 5530 5520 5510 5502 5492 5482 5473 5465 5459 5451 5443 5435 5429 5423 5419 5414 5411 5407 5404 5401 5397 5395 5391 5388 5386 5383 5381 5379 5377 5374 5372 5369 5366 5363 5360 5357 5354 5350 5347
5574 5564 5554 5546 5537 5528 5517 5509 5499 5489 5480 5472 5465 5457 5448 5442 5436 5430 5425 5420 5416 5412 5408 5404 5400 5397 5394 5390 5388 5385 5382 5379 5376 5373 5370 5367 5365 5362 5359 5355 5351 5347 5344 5339
5572 5562 5554 5544 5534 5523 5515 5505 5496 5488 5481 5472 5463 5456 5450 5443 5436 5431 5426 5421 5416 5412 5407 5404 5400 5397 5393 5390 5386 5383 5379 5376 5373 5370 5367 5363 5360 5356 5353 5349 5346 5341 5337 5333
5570 5562 5552 5543 5533 5524 5515 5505 5497 5488 5480 5469 5461 5456 5450 5443 5437 5431 5426 5421 5417 5412 5407 5402 5399 5394 5390 5387 5384 5380 5376 5373 5369 5365 5362 5359 5355 5351 5347 5343 5339 5335 5330 5326
5569 5561 5552 5543 5534 5523 5515 5506 5497 5488 5478 5468 5461 5454 5449 5443 5437 5431 5427 5422 5417 5412 5408 5403 5398 5393 5389 5384 5381 5377 5374 5369 5366 5361 5357 5353 5348 5344 5340 5335 5332 5328 5323 5319
5569 5561 5552 5543 5533 5523 5514 5503 5495 5484 5475 5468 5460 5453 5446 5441 5436 5431 5426 5422 5417 5412 5407 5402 5397 5392 5387 5382 5377 5373 5370 5366 5361 5357 5352 5348 5344 5340 5335 5330 5325 5321 5316 5311
5571 5561 5551 5541 5531 5521 5512 5501 5490 5481 5473 5466 5459 5453 5446 5440 5435 5430 5425 5421 5416 5410 5406 5401 5395 5390 5385 5380 5376 5371 5366 5361 5356 5352 5347 5342 5337 5332 5328 5323 5319 5314 5309 5304
5570 5561 5551 5541 5531 5521 5509 5499 5489 5481 5474 5466 5458 5452 5445 5439 5434 5428 5424 5419 5414 5409 5403 5399 5394 5389 5384 5379 5374 5369 5363 5357 5352 5347 5342 5337 5332 5326 5321 5317 5312 5307 5301 5296
5569 5560 5549 5539 5527 5516 5507 5497 5489 5481 5473 5465 5457 5450 5445 5438 5433 5427 5421 5417 5412 5407 5403 5399 5394 5389 5383 5378 5372 5367 5362 5356 5350 5344 5338 5332 5327 5321 5315 5310 5305 5300 5294 5288
5571 5558 5545 5534 5526 5517 5507 5497 5489 5481 5474 5466 5458 5452 5446 5438 5432 5424 5419 5415 5411 5406 5402 5398 5393 5387 5382 5377 5371 5365 5360 5354 5348 5341 5335 5329 5323 5316 5309 5303 5297 5291 5285 5278
5569 5556 5546 5537 5527 5518 5508 5499 5491 5482 5474 5466 5459 5451 5442 5435 5429 5424 5419 5415 5410 5406 5402 5397 5392 5386 5380 5374 5368 5362 5356 5349 5343 5336 5330 5323 5317 5310 5303 5295 5288 5280 5273 5266
5568 5558 5548 5538 5529 5519 5510 5501 5491 5482 5474 5466 5458 5450 5442 5436 5430 5425 5419 5413 5410 5406 5401 5395 5389 5384 5378 5372 5365 5359 5352 5345 5338 5331 5323 5316 5308 5300 5292 5284 5276 5267 5259 5251